GW0480 Weather Reports


Display with metric or nautical units.
time (UTC)temp
F
wind
direction
speed
MPH
gust
MPH
rain 1hr
in
rain 24hr
in
rain mn
in
humidity
%
barometer
mb
20260502224159 49 267 1.0 1.0 0.00 0.05 0.05 91 1008.4
20260502223657 49 329 0.0 1.0 0.00 0.05 0.05 90 1008.3
20260502223155 49 357 2.0 2.0 0.00 0.05 0.05 89 1008.2
20260502222652 49 341 0.0 1.0 0.00 0.05 0.05 89 1008.0
20260502222149 50 47 1.0 1.0 0.00 0.05 0.05 87 1008.1
20260502221644 50 7 3.0 3.0 0.00 0.05 0.05 86 1008.3
20260502221142 50 356 0.0 1.0 0.00 0.05 0.05 86 1008.2
20260502220638 51 9 1.0 1.0 0.00 0.05 0.05 86 1008.4
20260502220134 51 348 0.0 1.0 0.00 0.05 0.05 87 1008.5
20260502215631 51 343 0.0 1.0 0.00 0.05 0.05 89 1008.4
20260502215128 51 8 1.0 1.0 0.00 0.05 0.05 89 1008.5
20260502214625 51 329 0.0 1.0 0.00 0.05 0.05 89 1008.3
20260502214122 51 33 0.0 1.0 0.00 0.05 0.05 88 1008.3
20260502213620 52 68 1.0 1.0 0.00 0.05 0.05 89 1008.3
20260502213117 52 21 0.0 0.0 0.00 0.05 0.05 88 1008.3
20260502212616 52 332 0.0 1.0 0.00 0.05 0.05 88 1008.2
20260502212114 52 1 0.0 0.0 0.00 0.05 0.05 89 1008.1
20260502211609 52 176 0.0 1.0 0.00 0.05 0.05 88 1008.1
20260502211106 53 293 1.0 2.0 0.00 0.05 0.05 87 1008.2
20260502210603 53 37 0.0 0.0 0.00 0.05 0.05 87 1008.0
20260502210100 53 73 3.0 3.0 0.00 0.05 0.05 87 1008.1
20260502205556 53 51 2.0 2.0 0.00 0.05 0.05 86 1008.4
20260502205054 54 223 1.0 2.0 0.00 0.05 0.05 86 1008.1
20260502204550 54 245 1.0 2.0 0.00 0.05 0.05 84 1008.2
20260502204048 54 325 1.0 2.0 0.00 0.05 0.05 85 1008.2
20260502203545 54 284 1.0 1.0 0.00 0.05 0.05 85 1008.0
20260502203042 53 26 0.0 0.0 0.00 0.05 0.05 85 1008.1
20260502202538 53 225 1.0 2.0 0.00 0.05 0.05 86 1008.2
20260502202036 53 72 1.0 2.0 0.00 0.05 0.05 85 1008.1
20260502201532 53 257 3.0 3.0 0.00 0.05 0.05 85 1008.3
20260502201029 53 101 1.0 1.0 0.00 0.05 0.05 86 1008.2
20260502200525 53 14 0.0 1.0 0.00 0.05 0.05 86 1008.4
20260502200023 53 21 0.0 0.0 0.00 0.05 0.05 85 1008.4
20260502195521 53 94 1.0 2.0 0.00 0.05 0.05 84 1008.6
20260502195016 53 332 1.0 1.0 0.00 0.05 0.05 84 1008.5
20260502194513 53 220 2.0 2.0 0.00 0.05 0.05 85 1008.6
20260502194009 53 335 2.0 2.0 0.00 0.05 0.05 85 1008.5
20260502193506 53 353 1.0 1.0 0.00 0.05 0.05 84 1008.6
20260502193003 53 94 1.0 2.0 0.00 0.05 0.05 86 1008.8
20260502192458 54 53 1.0 2.0 0.00 0.05 0.05 86 1008.6
20260502191956 53 229 1.0 2.0 0.00 0.05 0.05 86 1008.8
20260502191453 53 347 1.0 2.0 0.00 0.05 0.05 86 1008.8
20260502190951 53 5 1.0 1.0 0.00 0.05 0.05 88 1009.0
20260502190448 53 86 3.0 3.0 0.00 0.05 0.05 87 1008.8
20260502185944 53 44 2.0 2.0 0.00 0.05 0.05 87 1009.2
20260502185440 53 98 4.0 5.0 0.00 0.05 0.05 87 1009.0
20260502184937 53 32 2.0 2.0 0.00 0.05 0.05 90 1009.2
20260502184432 52 47 2.0 2.0 0.00 0.05 0.05 92 1009.2
20260502183929 51 355 0.0 0.0 0.00 0.05 0.05 94 1009.2
20260502183425 52 321 1.0 1.0 0.00 0.05 0.05 95 1009.2
20260502182920 51 12 0.0 0.0 0.00 0.05 0.05 96 1009.2
20260502182416 51 333 0.0 0.0 0.05 0.05 0.05 95 1009.3
20260502181912 50 349 1.0 1.0 0.05 0.05 0.05 95 1009.3
20260502181411 50 21 0.0 0.0 0.00 0.04 0.04 95 1009.3
20260502180909 50 34 0.0 0.0 0.07 0.04 0.04 94 1009.4
20260502180406 50 316 1.0 1.0 0.07 0.04 0.04 94 1009.5
20260502170324 53 95 1.0 1.0 0.00 0.00 0.00 84 1009.5
20260502164312 53 38 1.0 1.0 0.00 0.00 0.00 81 1009.6
20260502163808 53 57 1.0 1.0 0.00 0.00 0.00 80 1009.5
20260502163304 53 9 0.0 0.0 0.00 0.00 0.00 78 1009.4
20260502162802 53 86 0.0 1.0 0.00 0.00 0.00 81 1009.3
20260502162259 53 23 0.0 0.0 0.00 0.00 0.00 81 1009.4
20260502161755 53 24 0.0 0.0 0.00 0.00 0.00 82 1009.4
20260502161251 53 331 1.0 1.0 0.00 0.00 0.00 83 1009.5
20260502160750 53 297 1.0 1.0 0.00 0.00 0.00 78 1009.4
20260502160249 54 45 0.0 1.0 0.00 0.00 0.00 79 1009.8
20260502152218 56 96 2.0 3.0 0.00 0.00 0.00 78 1009.6
20260502151715 54 11 0.0 0.0 0.00 0.00 0.00 82 1009.9
20260502151212 54 340 0.0 0.0 0.00 0.00 0.00 82 1009.6
20260502150709 54 296 1.0 2.0 0.00 0.00 0.00 82 1010.0
20260502150206 54 344 1.0 1.0 0.00 0.00 0.00 83 1009.8
20260502140130 54 97 1.0 2.0 0.00 0.00 0.00 78 1009.9
20260502130555 50 2 0.0 1.0 0.00 0.00 0.00 84 1010.9
20260502123538 51 23 0.0 0.0 0.00 0.00 0.00 83 1010.9
20260502123034 51 242 1.0 2.0 0.00 0.00 0.00 82 1010.8
20260502122531 51 220 3.0 3.0 0.00 0.00 0.00 81 1011.0
20260502122028 51 35 0.0 1.0 0.00 0.00 0.00 81 1010.7
20260502121526 51 343 1.0 2.0 0.00 0.00 0.00 81 1010.8
20260502121023 51 286 1.0 2.0 0.00 0.00 0.00 81 1010.5
20260502120519 51 315 2.0 2.0 0.00 0.00 0.00 81 1010.6
20260502115514 52 62 1.0 1.0 0.00 0.00 0.00 80 1010.5
20260502115009 51 246 2.0 2.0 0.00 0.00 0.00 79 1010.3
20260502114507 51 79 1.0 2.0 0.00 0.00 0.00 81 1010.2
20260502114003 52 55 1.0 2.0 0.00 0.00 0.00 80 1010.2
20260502113501 50 268 1.0 1.0 0.00 0.00 0.00 81 1010.0
20260502112959 50 18 0.0 0.0 0.00 0.00 0.00 82 1010.1
20260502112456 49 48 0.0 0.0 0.00 0.00 0.00 84 1010.1
20260502111954 49 35 0.0 0.0 0.00 0.00 0.00 85 1010.0
20260502111451 49 18 0.0 0.0 0.00 0.00 0.00 86 1010.0
20260502110949 49 283 1.0 1.0 0.00 0.00 0.00 86 1010.1
20260502110446 48 6 0.0 1.0 0.00 0.00 0.00 86 1010.2
20260502105943 48 24 0.0 0.0 0.00 0.00 0.00 88 1010.0
20260502105440 47 30 0.0 0.0 0.00 0.00 0.00 90 1010.1
20260502104938 47 36 0.0 0.0 0.00 0.00 0.00 91 1010.1
20260502104435 47 23 0.0 0.0 0.00 0.00 0.00 93 1010.2
20260502103932 47 22 0.0 0.0 0.00 0.00 0.00 93 1010.0
20260502103430 46 21 0.0 0.0 0.00 0.00 0.00 94 1009.7
20260502102927 46 29 0.0 0.0 0.00 0.00 0.00 95 1009.9
20260502102424 46 29 0.0 0.0 0.00 0.00 0.00 95 1010.0
20260502101921 46 16 0.0 0.0 0.00 0.00 0.00 96 1010.0
20260502101419 46 19 0.0 0.0 0.00 0.00 0.00 96 1009.9
20260502100917 46 10 0.0 0.0 0.00 0.00 0.00 96 1009.8
20260502100416 46 35 0.0 0.0 0.00 0.00 0.00 96 1009.7
20260502091350 46 24 0.0 0.0 0.00 0.00 0.00 92 1009.6
20260502090848 46 6 0.0 0.0 0.00 0.00 0.00 92 1009.6
20260502090344 46 25 0.0 0.0 0.00 0.00 0.00 91 1009.6
20260502071239 47 10 0.0 0.0 0.00 0.00 0.00 83 1009.6
20260502070737 47 352 0.0 0.0 0.00 0.00 0.00 82 1009.5
20260502070234 48 12 0.0 0.0 0.00 0.00 0.00 81 1009.5
20260502065733 49 33 0.0 0.0 0.00 0.00 0.00 81 1009.6
20260502065231 48 50 0.0 1.0 0.00 0.00 0.00 79 1009.6
20260502064729 48 29 0.0 0.0 0.00 0.00 0.00 79 1009.6
20260502064226 48 345 0.0 0.0 0.00 0.00 0.00 81 1009.7
20260502063723 47 7 0.0 0.0 0.00 0.00 0.00 82 1009.7
20260502063221 47 345 0.0 0.0 0.00 0.00 0.00 84 1009.9
20260502062718 47 22 0.0 0.0 0.00 0.00 0.00 84 1009.8
20260502062216 46 11 0.0 0.0 0.00 0.00 0.00 84 1009.7
20260502061714 45 25 0.0 0.0 0.00 0.00 0.00 86 1009.7
20260502061211 45 30 0.0 0.0 0.00 0.00 0.00 87 1009.6
20260502060706 45 20 0.0 0.0 0.00 0.00 0.00 87 1009.7
20260502060203 45 33 0.0 1.0 0.00 0.00 0.00 87 1009.7
20260502055701 44 21 0.0 0.0 0.00 0.00 0.00 87 1009.9
20260502055158 44 14 0.0 0.0 0.00 0.00 0.00 87 1009.7
20260502054657 44 20 0.0 0.0 0.00 0.00 0.00 87 1009.8
20260502054154 44 27 0.0 0.0 0.00 0.00 0.00 86 1009.7
20260502053652 44 27 0.0 0.0 0.00 0.00 0.00 86 1009.8
20260502053148 44 39 0.0 0.0 0.00 0.00 0.00 85 1009.9
20260502052647 44 19 0.0 0.0 0.00 0.00 0.00 84 1010.0
20260502052145 44 11 0.0 0.0 0.00 0.00 0.00 83 1009.8
20260502051643 45 14 0.0 0.0 0.00 0.00 0.00 83 1009.9
20260502051141 45 23 0.0 0.0 0.00 0.00 0.00 82 1009.8
20260502050636 46 14 0.0 0.0 0.00 0.00 0.00 81 1010.0
20260502050133 46 21 0.0 0.0 0.00 0.00 0.00 79 1010.2
20260502045630 46 11 0.0 0.0 0.00 0.00 0.00 78 1010.0
20260502045127 47 14 0.0 0.0 0.00 0.00 0.00 78 1010.0
20260502044623 48 39 0.0 0.0 0.00 0.00 0.00 75 1010.0
20260502044120 48 40 0.0 0.0 0.00 0.00 0.00 73 1010.0
20260502043618 49 40 0.0 0.0 0.00 0.00 0.00 72 1009.9
20260502043114 49 15 0.0 0.0 0.00 0.00 0.00 73 1009.9
20260502042609 49 354 0.0 0.0 0.00 0.00 0.00 70 1010.1
20260502042106 50 325 1.0 2.0 0.00 0.00 0.00 73 1010.1
20260502041604 50 333 1.0 1.0 0.00 0.00 0.00 70 1009.8
20260502041101 49 330 0.0 1.0 0.00 0.00 0.00 69 1009.9
20260502040557 49 89 0.0 0.0 0.00 0.00 0.00 68 1009.8
20260502040055 49 209 1.0 1.0 0.00 0.00 0.00 69 1009.9
20260502035550 49 352 0.0 1.0 0.00 0.00 0.00 68 1010.1
20260502035048 50 312 1.0 1.0 0.00 0.00 0.00 68 1009.9
20260502034546 50 310 1.0 1.0 0.00 0.00 0.00 67 1009.9
20260502034044 50 8 0.0 1.0 0.00 0.00 0.00 67 1009.8
20260502033542 50 35 0.0 0.0 0.00 0.00 0.00 66 1009.9
20260502033039 50 18 0.0 0.0 0.00 0.00 0.00 64 1009.9
20260502032535 50 9 0.0 0.0 0.00 0.00 0.00 64 1010.2
20260502032032 51 31 0.0 0.0 0.00 0.00 0.00 64 1010.1
20260502031530 51 45 0.0 1.0 0.00 0.00 0.00 61 1009.9
20260502031027 51 338 2.0 2.0 0.00 0.00 0.00 62 1009.9
20260502030526 51 359 0.0 0.0 0.00 0.00 0.00 62 1009.8
20260502030023 51 352 1.0 1.0 0.00 0.00 0.00 61 1009.8
20260502025520 51 218 2.0 2.0 0.00 0.00 0.00 61 1009.6
20260502025019 51 313 1.0 1.0 0.00 0.00 0.00 61 1009.5
20260502024515 50 18 0.0 1.0 0.00 0.00 0.00 64 1009.8
20260502024014 50 351 0.0 0.0 0.00 0.00 0.00 64 1009.8
20260502023511 49 35 1.0 1.0 0.00 0.00 0.00 63 1009.9
20260502023008 48 13 1.0 1.0 0.00 0.00 0.00 65 1009.9
20260502022505 47 316 0.0 1.0 0.00 0.00 0.00 71 1009.8
20260502022003 45 72 1.0 1.0 0.00 0.00 0.00 77 1009.9
20260502021500 44 44 0.0 0.0 0.00 0.00 0.00 79 1009.9
20260502020956 44 20 0.0 0.0 0.00 0.00 0.00 77 1009.8
20260502020455 45 40 0.0 0.0 0.00 0.00 0.00 77 1009.8
20260502015950 45 38 0.0 0.0 0.00 0.00 0.00 77 1009.6
20260502015449 44 44 0.0 0.0 0.00 0.00 0.00 77 1009.6
20260502014945 43 12 0.0 0.0 0.00 0.00 0.00 79 1009.6
20260502014442 43 22 0.0 0.0 0.00 0.00 0.00 78 1009.4
20260502013938 43 22 0.0 0.0 0.00 0.00 0.00 77 1009.5
20260502013434 43 25 0.0 0.0 0.00 0.00 0.00 76 1009.4
20260502012931 44 27 0.0 0.0 0.00 0.00 0.00 75 1009.6
20260502012428 43 23 0.0 0.0 0.00 0.00 0.00 75 1009.4
20260502011926 44 22 0.0 0.0 0.00 0.00 0.00 74 1009.4
20260502011422 44 22 0.0 0.0 0.00 0.00 0.00 73 1009.3
20260502010919 44 22 0.0 0.0 0.00 0.00 0.00 73 1009.4
20260502010415 45 22 0.0 0.0 0.00 0.00 0.00 73 1009.2
20260502005912 45 22 0.0 0.0 0.00 0.00 0.00 72 1009.2
20260502005410 45 22 0.0 0.0 0.00 0.00 0.00 72 1009.2
20260502004908 46 22 0.0 0.0 0.00 0.00 0.00 69 1008.9
20260502004403 46 22 0.0 0.0 0.00 0.00 0.00 66 1008.8
20260502003901 47 22 0.0 0.0 0.00 0.00 0.00 64 1008.8
20260502003358 48 22 0.0 0.0 0.00 0.00 0.00 62 1008.8
20260502002854 49 22 0.0 0.0 0.00 0.00 0.00 61 1008.8
20260502002351 49 22 0.0 0.0 0.00 0.00 0.00 60 1008.5
20260502001849 50 16 0.0 0.0 0.00 0.00 0.00 57 1008.5
20260502001346 51 14 0.0 0.0 0.00 0.00 0.00 55 1008.6
20260502000844 52 12 0.0 0.0 0.00 0.00 0.00 52 1008.3
20260502000342 53 10 0.0 0.0 0.00 0.00 0.00 51 1008.3
20260501235838 54 6 0.0 0.0 0.00 0.00 0.00 50 1008.3
20260501235333 55 7 0.0 0.0 0.00 0.00 0.00 48 1008.2
20260501234829 56 7 0.0 0.0 0.00 0.00 0.00 45 1008.0
20260501234326 57 356 0.0 0.0 0.00 0.00 0.00 40 1008.0
20260501233825 58 349 0.0 1.0 0.00 0.00 0.00 39 1008.1
20260501233322 58 7 0.0 0.0 0.00 0.00 0.00 38 1007.8
20260501232817 58 237 1.0 2.0 0.00 0.00 0.00 36 1007.7
20260501232315 59 5 0.0 1.0 0.00 0.00 0.00 36 1007.6
20260501231812 59 316 2.0 3.0 0.00 0.00 0.00 35 1007.6
20260501231310 60 356 1.0 2.0 0.00 0.00 0.00 35 1007.5
20260501230808 60 315 1.0 2.0 0.00 0.00 0.00 36 1007.4
20260501230306 60 349 1.0 2.0 0.00 0.00 0.00 35 1007.4
20260501225803 61 223 1.0 1.0 0.00 0.00 0.00 34 1007.5
20260501225305 61 355 0.0 0.0 0.00 0.00 0.00 33 1007.3
20260501224757 62 318 2.0 2.0 0.00 0.00 0.00 33 1007.3